Location: Boffres
(44.9220°N, 4.7039°E)
Time: 05:05:03
(UTC+00:00)

Daily predictions for brighter satellites

Satellite Brightness Start Highest point End
(mag) Time Altitude Azimuth Time Altitude Azimuth Time Altitude Azimuth
SeaSat 1 2.9 00:03:17 10° NNE 00:08:06 53° WNW 00:08:06 53° WNW
USA 215 3.5 00:10:09 50° WSW 00:10:09 50° WSW 00:15:45 10° WNW
Cosmos 1943 Rocket 2.2 00:09:25 68° WNW 00:09:33 68° WNW 00:15:11 10° NNE
Cosmos 2242 Rocket 4.3 00:11:36 51° N 00:11:36 51° N 00:14:59 10° N
ATLAS 2AS CENTAUR R/B 2.8 00:04:37 10° NW 00:11:45 58° WSW 00:11:46 58° WSW
Cosmos 1461 4.0 00:15:16 44° ENE 00:15:16 44° ENE 00:18:36 10° NE
Cosmos 2239 Rocket 4.5 00:09:09 10° N 00:15:27 75° E 00:16:15 66° SE
Cosmos 1937 Rocket 4.3 00:18:25 40° WNW 00:18:35 40° WNW 00:23:28 10° N
EO 1 Delta rocket 4.0 00:22:19 77° N 00:22:19 77° N 00:27:16 10° N
SL-16 R/B 3.8 00:21:04 19° ESE 00:24:41 35° ENE 00:30:15 10° N
Cosmos 1048 Rocket 4.1 00:20:46 10° NNW 00:26:08 68° ENE 00:26:21 67° E
Okean 1-7 4.0 00:29:25 42° NNW 00:29:25 42° NNW 00:32:32 10° N
Gbstr 26 Del rocket 3.9 00:30:07 10° WNW 00:36:50 71° NNE 00:42:11 10° ESE
Okean 2 Rocket 3.9 00:33:07 10° N 00:37:10 45° ENE 00:37:10 45° ENE
Cosmos 1821 Rocket 4.1 00:33:37 10° NNW 00:39:55 61° W 00:40:28 59° WSW
Helios 1A 3.7 00:41:18 51° NNW 00:41:18 51° NNW 00:44:29 10° NNW
Okean 3 4.1 00:41:55 53° N 00:41:55 53° N 00:45:16 10° N
Cosmos 2344 4.5 00:32:42 10° NW 00:41:56 73° NE 00:54:54 10° SE
Cosmos 1656 Rocket 3.5 00:42:15 77° ESE 00:42:19 78° ESE 00:47:50 10° NNE
Cosmos 2150 Rocket 3.9 00:45:19 86° SSE 00:45:24 87° ESE 00:50:47 10° NNE
ISS -1.2 00:48:19 18° ENE 00:48:19 18° ENE 00:49:17 10° ENE
Helios 1B rocket 3.9 00:43:13 10° NE 00:46:30 29° E 00:46:30 29° E
Cosmos 1934 Rocket 3.8 00:45:27 10° N 00:51:40 86° W 00:52:36 66° S
Cosmos 1867 3.5 00:52:08 72° SE 00:52:15 72° ESE 00:57:43 10° NE
RESURS DK-1 3.0 00:49:07 10° NNW 00:52:35 55° N 00:52:35 55° N
Meteor 1-12 Rocket 4.4 00:50:27 10° NNW 00:56:15 58° W 00:56:29 58° WSW
CZ-2D R/B 2.7 00:52:12 10° NNE 00:57:28 47° E 00:58:21 43° SE
ATLAS CENTAUR R/B 2.6 01:02:36 31° ENE 01:02:36 31° ENE 01:04:57 10° NE
Cosmos 1300 Rocket 3.8 00:58:25 10° NNW 01:02:12 62° NNW 01:02:12 62° NNW
Cosmos 1535 Rocket 4.4 00:56:59 10° N 01:03:13 78° W 01:04:22 60° SSW
Cosmos 2221 Rocket 3.6 01:08:51 80° NNW 01:08:51 80° NNW 01:13:15 10° N
USA 281 3.2 01:09:03 54° SSW 01:10:21 65° WSW 01:16:54 10° NNW
USA 81 3.9 01:09:04 10° N 01:14:23 82° W 01:14:57 70° SSW
Cosmos 1707 4.4 01:20:58 25° ESE 01:21:30 26° E 01:24:42 10° NNE
CZ-4 R/B 4.4 01:18:00 10° N 01:22:39 43° WNW 01:23:00 43° W
MOZ.5/SAFIR/RUBIN 5/SL-8 4.1 01:24:37 50° WNW 01:24:37 50° WNW 01:28:43 10° NNW
Meteor 2-10 4.5 01:19:22 10° N 01:24:51 61° ENE 01:27:05 34° SE
Cosmos 1125 Rocket 3.7 01:24:54 50° W 01:25:37 55° WNW 01:30:46 10° NNE
Cosmos 1766 3.9 01:23:19 10° NNW 01:26:24 46° NW 01:26:24 46° NW
IDEFIX/ARIANE 42P 4.5 01:25:52 10° NE 01:29:57 22° E 01:33:18 13° SE
Cosmos 1400 Rocket 3.0 01:26:33 10° N 01:30:41 68° E 01:31:01 64° ESE
Resurs 1-4 Rocket 2.0 01:26:22 10° NNE 01:31:39 87° WNW 01:32:45 58° SSW
Cosmos 2369 Rocket 3.4 01:31:09 26° W 01:32:55 31° NW 01:37:54 10° N
ADEOS II 2.8 01:29:06 10° NNE 01:34:09 46° E 01:36:09 32° SSE
Cosmos 1153 Rocket 4.5 01:31:30 10° N 01:37:54 88° E 01:40:56 34° S
CZ-3B R/B 4.3 01:28:49 27° SW 01:42:12 81° SE 01:47:53 10° NE
SL-19 R/B 4.2 01:37:54 10° NNE 01:43:45 85° ESE 01:45:37 44° S
Tianhe-1 3.6 01:46:44 15° ESE 01:46:44 15° ESE 01:47:29 10° E
Cosmos 1605 Rocket 4.2 01:38:46 10° NNW 01:44:46 54° W 01:46:26 42° SW
Gblst 52 Del rocket 4.1 01:39:05 10° WNW 01:45:17 70° SW 01:50:51 10° SE
Lacrosse 5 2.9 01:45:07 29° SSE 01:46:08 32° SE 01:50:37 10° ENE
ARGOS Delta rocket 4.0 01:41:45 10° NNE 01:46:13 63° E 01:47:33 43° SSE
Cosmos 1470 2.6 01:46:06 10° N 01:50:01 84° ENE 01:50:26 70° SSE
Cosmos 1378 Rocket 3.5 01:51:11 60° WSW 01:51:36 64° W 01:55:56 10° N
Cosmos 1943 Rocket 4.4 01:51:26 10° WNW 01:54:24 14° NW 01:57:23 10° N
BREEZE-M DEB (TANK) 3.7 01:53:33 33° S 01:55:18 44° SE 02:07:05 10° ENE
NOSS 2-1 (E) 4.4 01:50:55 10° NW 01:56:01 78° NE 02:03:18 10° SE
Cosmos 1459 Rocket 4.2 01:49:50 10° N 01:56:10 71° E 02:01:05 17° SSE
Cosmos 724 4.4 01:56:07 40° SW 01:58:33 80° NW 02:04:50 10° NNE
Okean 1 Rocket 3.0 01:55:14 10° NNW 01:59:38 65° W 02:00:22 55° SW
Cosmos 1269 Rocket 4.0 01:54:34 10° NNW 01:59:49 63° WSW 02:01:40 39° S
IRS-1D 3.8 01:56:25 10° NNE 02:01:44 68° ESE 02:04:22 30° S
Cosmos 2173 Rocket 4.0 01:55:47 10° N 02:01:56 80° E 02:06:41 18° SSE
Cosmos 1726 1.9 02:00:35 10° NNW 02:04:17 75° W 02:04:34 69° SW
Cosmos 44 Rocket 3.3 02:00:04 10° NW 02:05:19 82° WSW 02:10:25 10° SSE
COSMOS 2455 3.7 02:00:29 10° NNW 02:06:23 51° NE 02:12:12 10° SE
SL-16 R/B 2.9 02:06:09 34° SW 02:08:07 44° W 02:14:07 10° NNW
Cosmos 1802 Rocket 4.1 02:02:31 10° N 02:08:42 72° E 02:14:33 11° SSE
Meteor 1-28 Rocket 3.3 02:07:32 33° SSE 02:09:02 69° ENE 02:12:45 10° N
Cosmos 1842 4.2 02:10:36 32° WNW 02:10:39 32° WNW 02:14:10 10° N
Meteor 1-29 3.3 02:10:06 10° N 02:13:20 47° WNW 02:13:24 47° WNW
NPP 4.1 02:10:51 10° N 02:15:59 47° WNW 02:18:04 31° WSW
Cosmos 1626 4.3 02:13:46 10° SE 02:16:42 23° E 02:19:40 10° NE
Cosmos 2100 Rocket 3.9 02:11:07 10° NNW 02:17:22 75° W 02:21:53 20° S
Cosmos 2227 Rocket 3.5 02:13:21 10° NNW 02:18:41 41° NE 02:23:59 10° SE
Okean 2 4.0 02:19:01 36° W 02:19:43 39° WNW 02:23:40 10° N
GP-B 4.1 02:16:02 10° NNE 02:20:19 45° E 02:24:17 12° SSE
Cosmos 1953 3.0 02:17:44 10° N 02:21:38 53° ENE 02:25:13 12° SSE
Helios 1B rocket 3.7 02:18:35 10° N 02:22:01 26° WNW 02:22:48 24° W
Landsat 4 4.4 02:19:09 10° N 02:22:38 38° WNW 02:23:14 35° W
AQUA 4.4 02:18:20 10° N 02:22:52 44° WNW 02:24:31 32° WSW
ISS -2.1 02:21:16 19° WNW 02:22:58 31° NNW 02:26:02 10° NE
Cosmos 2297 Rocket 2.9 02:17:24 10° NNW 02:22:59 55° ENE 02:28:33 10° SE
DELTA 2 DEB (DPAF) 4.2 02:21:24 34° SSW 02:23:06 58° WSW 02:27:31 10° NNW
Gbstr 26 Del rocket 4.0 02:18:11 10° WNW 02:23:35 35° SW 02:26:08 22° S
BREEZE-M R/B 4.1 02:21:29 11° WNW 02:25:46 50° SSW 02:34:56 10° SE
Cosmos 2123 Rocket 4.1 02:23:05 17° S 02:27:59 74° E 02:34:10 10° NNE
ADEOS Rocket 3.4 02:22:44 10° S 02:29:51 78° WSW 02:37:36 10° NNW
Cosmos 371 Rocket 3.9 02:30:01 19° S 02:33:19 54° ESE 02:38:05 10° NNE
OAO 3 Rocket 4.3 02:33:08 25° S 02:33:22 25° S 02:37:21 10° SE
Spot 1 4.1 02:30:01 17° S 02:33:30 79° WSW 02:38:16 10° NNW
Cosmos 1025 Rocket 3.7 02:31:17 16° SSE 02:34:36 53° E 02:38:51 10° NNE
Cosmos 1544 Rocket 4.2 02:30:26 10° N 02:34:45 57° E 02:39:04 10° SSE
IRS-P3 4.4 02:29:57 10° NNE 02:35:17 65° ESE 02:39:42 15° S
COSMOS 2487 3.9 02:32:38 10° NW 02:34:28 21° WNW 02:34:28 21° WNW
CZ-2D R/B 3.4 02:32:45 10° N 02:37:13 27° WNW 02:39:41 19° WSW
CZ-2C R/B 3.1 02:40:56 11° SSE 02:40:56 11° SSE 02:41:33 10° SE
ATLAS CENTAUR R/B 3.0 02:38:44 16° WNW 02:40:26 21° NW 02:43:21 10° N
[s.n.48335] 2.2 02:41:23 58° W 02:41:41 67° SW 02:44:16 10° SE
[s.n.48334] 2.2 02:41:26 58° W 02:41:45 67° SW 02:44:20 10° SE
Lacrosse 4 Rocket 4.2 02:39:32 10° SE 02:41:48 14° ESE 02:44:03 10° ENE
[s.n.48333] 2.2 02:41:41 65° WSW 02:41:49 67° SW 02:44:22 10° SE
[s.n.48332] 2.2 02:41:30 58° W 02:41:49 67° SW 02:44:24 10° SE
[s.n.48331] 2.2 02:41:39 58° W 02:41:58 67° SW 02:44:33 10° SE
[s.n.48330] 2.2 02:41:54 64° WSW 02:42:01 66° SW 02:44:35 10° SE
[s.n.48329] 2.2 02:41:48 58° W 02:42:06 66° SW 02:44:42 10° SE
[s.n.48328] 2.2 02:42:01 64° WSW 02:42:09 66° SW 02:44:43 10° SE
[s.n.48327] 2.2 02:42:04 64° WSW 02:42:13 66° SW 02:44:46 10° SE
[s.n.48326] 2.2 02:42:01 58° W 02:42:18 66° SW 02:44:53 10° SE
[s.n.48324] 2.3 02:44:11 52° W 02:44:34 62° SW 02:47:08 10° SE
ARIANE 5 R/B 2.9 02:39:40 10° NNE 02:44:49 62° E 02:49:42 11° S
[s.n.48325] 2.3 02:44:48 47° W 02:45:19 61° SW 02:47:54 10° SE
[s.n.48323] 2.3 02:45:06 53° WSW 02:45:26 60° SW 02:47:59 10° SE
[s.n.48321] 2.3 02:45:16 52° WSW 02:45:37 60° SW 02:48:10 10° SE
[s.n.48320] 2.3 02:45:17 51° W 02:45:40 60° SW 02:48:14 10° SE
[s.n.48322] 2.3 02:45:11 46° W 02:45:43 60° SW 02:48:18 10° SE
[s.n.48318] 2.3 02:45:26 53° WSW 02:45:45 60° SW 02:48:19 10° SE
[s.n.48319] 2.3 02:45:26 53° WSW 02:45:45 60° SW 02:48:19 10° SE
[s.n.48317] 2.3 02:45:35 53° WSW 02:45:54 59° SW 02:48:27 10° SE
[s.n.48316] 2.3 02:45:37 52° WSW 02:45:58 59° SW 02:48:31 10° SE
[s.n.48315] 2.3 02:45:43 52° WSW 02:46:04 59° SW 02:48:37 10° SE
Cosmos 1455 Rocket 3.0 02:41:46 10° NNW 02:46:04 67° W 02:49:31 15° S
[s.n.48314] 2.3 02:45:46 51° W 02:46:09 59° SW 02:48:42 10° SE
[s.n.48313] 2.3 02:45:52 52° WSW 02:46:13 59° SW 02:48:46 10° SE
[s.n.48312] 2.3 02:45:55 51° WSW 02:46:16 59° SW 02:48:50 10° SE
[s.n.48311] 2.3 02:46:00 51° WSW 02:46:22 59° SW 02:48:54 10° SE
[s.n.48310] 2.3 02:45:50 44° W 02:46:24 59° SW 02:49:00 10° SE
[s.n.48309] 2.3 02:45:54 44° W 02:46:29 59° SW 02:49:04 10° SE
[s.n.48308] 2.3 02:45:58 43° W 02:46:33 59° SW 02:49:08 10° SE
[s.n.48307] 2.3 02:46:13 49° W 02:46:38 58° SW 02:49:11 10° SE
[s.n.48306] 2.3 02:46:13 47° W 02:46:41 58° SW 02:49:15 10° SE
[s.n.48305] 2.3 02:46:18 47° W 02:46:46 58° SW 02:49:20 10° SE
[s.n.48304] 2.3 02:46:25 49° W 02:46:50 58° SW 02:49:23 10° SE
[s.n.48303] 2.3 02:46:26 46° W 02:46:55 58° SW 02:49:30 10° SE
[s.n.48302] 2.3 02:46:29 46° W 02:46:58 58° SW 02:49:32 10° SE
[s.n.48301] 2.3 02:46:39 48° W 02:47:04 58° SW 02:49:37 10° SE
[s.n.48300] 2.3 02:46:40 48° W 02:47:06 58° SW 02:49:39 10° SE
[s.n.48299] 2.3 02:46:47 48° W 02:47:13 57° SW 02:49:46 10° SE
[s.n.48298] 2.3 02:46:46 45° W 02:47:16 58° SW 02:49:51 10° SE
[s.n.48297] 2.3 02:46:44 41° W 02:47:22 58° SW 02:49:57 10° SE
[s.n.48296] 2.3 02:46:48 41° W 02:47:26 58° SW 02:50:01 10° SE
[s.n.48295] 2.3 02:47:03 46° W 02:47:31 57° SW 02:50:04 10° SE
[s.n.48294] 2.3 02:47:08 46° W 02:47:35 57° SW 02:50:09 10° SE
[s.n.48293] 2.3 02:47:12 47° W 02:47:39 57° SW 02:50:13 10° SE
[s.n.48292] 2.4 02:47:00 39° W 02:47:42 57° SW 02:50:19 10° SE
[s.n.48291] 2.3 02:47:20 46° W 02:47:48 57° SW 02:50:21 10° SE
[s.n.48290] 2.3 02:47:22 46° W 02:47:49 57° SW 02:50:23 10° SE
[s.n.48289] 2.3 02:47:28 45° W 02:47:57 56° SW 02:50:30 10° SE
[s.n.48288] 2.3 02:47:31 45° W 02:48:00 56° SW 02:50:34 10° SE
[s.n.48286] 2.3 02:47:32 45° W 02:48:02 56° SW 02:50:35 10° SE
[s.n.48287] 2.3 02:47:35 45° W 02:48:04 56° SW 02:50:38 10° SE
[s.n.48285] 2.3 02:47:45 45° W 02:48:15 56° SW 02:50:48 10° SE
[s.n.48284] 2.3 02:47:47 44° W 02:48:18 56° SW 02:50:51 10° SE
[s.n.48283] 2.3 02:47:53 44° W 02:48:24 56° SW 02:50:57 10° SE
[s.n.48282] 2.4 02:47:56 43° W 02:48:28 56° SW 02:51:01 10° SE
[s.n.48281] 2.4 02:47:49 38° W 02:48:33 56° SW 02:51:09 10° SE
[s.n.48280] 2.4 02:48:06 44° W 02:48:37 55° SW 02:51:10 10° SE
[s.n.48279] 2.4 02:48:09 43° W 02:48:41 55° SW 02:51:14 10° SE
[s.n.48278] 2.4 02:48:11 42° W 02:48:45 55° SW 02:51:19 10° SE
CZ-4C R/B 3.7 02:45:49 19° S 02:48:47 51° W 02:53:01 10° NNW
CZ-2D R/B 4.5 02:44:37 10° NNE 02:48:49 46° E 02:53:03 10° S
[s.n.48277] 2.4 02:48:18 43° W 02:48:50 55° SW 02:51:23 10° SE
[s.n.48276] 2.4 02:48:16 39° W 02:48:57 55° SW 02:51:32 10° SE
Cosmos 1864 Rocket 4.5 02:44:06 10° N 02:50:28 76° W 02:56:47 10° S
Cosmos 1758 4.3 02:47:54 10° NNW 02:51:28 29° W 02:52:44 24° WSW
In-Cosmos 22 4.4 02:48:03 21° SSW 02:51:52 58° WNW 02:57:24 10° N
Cosmos 2219 3.3 02:48:20 10° NNW 02:54:03 83° ENE 02:59:48 10° SSE
KORONAS-FOTON 3.9 02:52:13 23° SSW 02:54:29 63° W 02:58:24 10° N
Cosmos 1707 4.1 02:56:07 20° W 02:57:18 23° WNW 03:00:23 10° NNW
Cosmos 1674 2.9 02:56:39 23° SSW 02:58:51 54° WNW 03:02:38 10° N
Cosmos 1315 Rocket 3.6 02:58:52 10° NNW 03:02:26 33° W 03:04:35 19° SW
COSMOS 2441 4.4 02:59:13 10° NNE 03:04:10 88° W 03:08:59 10° SSW
USA 129 2.4 03:02:07 10° SSE 03:04:33 60° ENE 03:06:45 10° N
IDEFIX/ARIANE 42P 2.9 03:04:43 10° N 03:09:48 51° WNW 03:14:07 14° SW
Resurs 1-4 Rocket 4.1 03:08:07 10° NNW 03:10:41 14° NW 03:13:15 10° W
Timation 2 Rocket 3.8 03:04:53 10° NNW 03:10:53 77° WSW 03:16:52 10° SSE
Cosmos 2061 Rocket 4.3 03:04:53 10° NNW 03:10:55 51° W 03:17:01 10° SSW
Cosmos 1300 3.5 03:08:25 10° N 03:12:10 53° ENE 03:15:53 10° SSE
ADEOS II 3.3 03:09:18 10° N 03:13:36 26° WNW 03:17:05 13° WSW
TSX-5 3.8 03:10:25 10° NNW 03:13:43 71° ENE 03:17:34 10° SE
USA 276 2.4 03:14:03 19° SW 03:16:05 55° SSE 03:19:12 10° ENE
Cosmos 1975 Rocket 4.1 03:13:31 16° WSW 03:16:07 28° WNW 03:19:55 10° NNW
Cosmos 614 Rocket 3.9 03:11:36 10° NNW 03:16:38 64° WSW 03:21:40 10° S
Cosmos 1908 3.7 03:13:37 10° NNW 03:17:14 39° W 03:20:52 10° SSW
Cosmos 1725 Rocket 4.3 03:12:04 10° NNW 03:18:04 49° W 03:24:00 10° SSW
Tianhe-1 1.6 03:18:36 16° WSW 03:20:46 41° S 03:23:44 10° ESE
BREEZE-M DEB (TANK) 2.2 03:19:51 15° SW 03:22:19 42° SSE 03:24:26 10° ENE
Cosmos 407 Rocket 3.7 03:18:36 10° NNW 03:23:58 81° ENE 03:29:19 10° SSE
SL-14 R/B 3.2 03:20:23 10° S 03:24:15 80° W 03:28:11 10° N
Cosmos 1656 3.9 03:20:47 13° SW 03:25:33 56° WNW 03:30:59 10° NNE
SL-08 R/B 3.5 03:23:24 10° S 03:28:01 48° W 03:32:34 10° NNW
Spot 4 Rocket 4.1 03:23:23 10° NNE 03:28:34 88° WNW 03:33:42 10° SSW
Lacrosse 5 2.3 03:24:19 12° WSW 03:28:54 56° NW 03:33:55 10° NE
Cosmos 2285 Rocket 4.5 03:26:37 10° S 03:32:54 65° ESE 03:39:16 10° NNE
Cosmos 2233 Rocket 4.2 03:31:29 10° NNW 03:37:30 53° W 03:43:27 10° SSW
SL-24 R/B 4.4 03:34:04 10° SSE 03:37:39 57° ENE 03:41:25 10° N
Cosmos 2251 Rocket 4.3 03:34:30 10° NW 03:39:04 31° W 03:43:36 10° SSW
Cosmos 2056 Rocket 3.8 03:35:05 10° S 03:40:09 69° ESE 03:45:15 10° NNE
MSX 4.4 03:35:55 10° N 03:41:18 42° WNW 03:46:40 10° SW
CZ-4B R/B 4.1 03:37:46 10° N 03:42:16 38° WNW 03:46:51 10° SW
Cosmos 405 3.6 03:40:44 10° N 03:44:14 60° ENE 03:47:42 10° SSE
Iridium 2 4.3 03:40:50 10° SSW 03:44:21 36° W 03:47:55 10° NNW
Cosmos 1697 Rocket 2.8 03:43:10 10° SSW 03:48:46 71° WNW 03:54:24 10° NNE
Cosmos 1626 3.4 03:48:48 10° SW 03:51:49 24° WNW 03:54:51 10° NNW
Cosmos 1371 Rocket 4.0 03:46:42 10° SSW 03:51:58 84° WNW 03:57:13 10° NNE
COSMOS 2455 3.6 03:46:53 10° NW 03:52:02 30° WSW 03:57:09 10° SSW
PAYLOAD A 3.9 03:48:22 10° N 03:53:10 66° WNW 03:57:49 10° SSW
Cosmos 1980 Rocket 2.5 03:51:53 10° SSW 03:57:34 74° ESE 04:03:14 10° NNE
